weather.gov     
National Weather Service

Weather Roundup
NWS Homepage
This page is being discontinued on March 12, 2014.
The same data is available at this site. Please update your bookmarks.
Thank you, and we apologize for the inconvenience.
Please send an email to SR-SRH.Webmaster@noaa.gov with any concerns.


Current Version
Previous Version:    01  02  03  04  05  06  07  08  09  10  11  12  13  14  15  16  17  18  19  20  21  22  23  24  25  26  27  28  29  30  
   31  32  33  34  35  36  37  38  39  40  41  42  43  44  45  46  47  48  49  50  51  52  53  54  55  56  57  58  59  60  
[Printable]
013
NZUS99 KSGF 021407
HRRSGF

HOURLY WEATHER
NATIONAL WEATHER SERVICE SPRINGFIELD MO
900 AM CDT TUE SEP 02 2014

......SGF CWA......

CITY           SKY/WX    TMP DP  RH WIND       PRES   REMARKS
SPRINGFIELD    CLOUDY    68  65  90 SW14      30.02F
JOPLIN         LGT RAIN  67  65  93 SE9       29.97F
WEST PLAINS    LGT RAIN  67  64  90 SW9       30.07R
ROLLA            N/A    N/A N/A N/A MISG      29.97R
OSAGE BEACH    CLOUDY    70  64  83 SW8       29.98R
BRANSON        TSTM      64  64 100 S6        30.06F

......SURROUNDING SGF CWA......

CITY           SKY/WX    TMP DP  RH WIND       PRES   REMARKS
CHANUTE        CLOUDY    69  66  90 S3        29.98R
PARSONS        CLOUDY    68  66  93 NW5       29.99R
COFFEYVILLE    LGT RAIN  67  66  97 S12G22    29.93F
EMPORIA        CLOUDY    70  70 100 NE6       29.98S FOG
GROVE OK       CLOUDY    68  68 100 S8        30.01R
ROGERS AR      LGT RAIN  65  63  93 SE8       30.08F
HARRISON AR    LGT RAIN  66  65  96 SE5       30.07F FOG
NEAR YELLVILLE CLOUDY    68  63  83 CALM      30.08R

......KANSAS AND MISSOURI......

CITY           SKY/WX    TMP DP  RH WIND       PRES   REMARKS
KANSAS CTY INT CLOUDY    67  67 100 W5        29.99R FOG
DOWNTOWN KC    FOG       71  69  93 CALM      29.98R VSB 3/4
COLUMBIA       CLOUDY    71  70  96 W8        29.97R
SEDALIA        CLOUDY    72  69  90 SW6       29.98R
ST JOSEPH      PTSUNNY   66  64  93 CALM      29.98S
ST LOUIS       CLOUDY    73  69  87 W6        29.95R
SPIRIT OF STL  CLOUDY    71  69  93 CALM      29.94R
KIRKSVILLE     CLOUDY    68  67  96 W3        29.98R
WICHITA        CLOUDY    73  69  87 NE8       29.97S
TOPEKA         CLOUDY    68  68 100 NW3       29.99R FOG
OLATHE         CLOUDY    70  68  94 N3        29.98R FOG

......TENNESSEE......

CITY           SKY/WX    TMP DP  RH WIND       PRES   REMARKS
MEMPHIS        CLOUDY    80  74  81 SW8G16    30.04S
NASHVILLE      PTSUNNY   81  71  71 SW8       30.06S

......ARKANSAS.......

CITY           SKY/WX    TMP DP  RH WIND       PRES   REMARKS
FAYETTEVILLE   RAIN      65  65 100 E8        30.11R
FT SMITH       HVY RAIN  71  67  87 NE24G36   30.05R FOG
LITTLE ROCK    CLOUDY    79  74  84 VRB5      30.03R

......OKLAHOMA.......

CITY           SKY/WX    TMP DP  RH WIND       PRES   REMARKS
TULSA          LGT RAIN  68  68 100 S8        29.99F
PONCA CITY     CLOUDY    71  68  90 SE9       29.96R
MCALESTER      SUNNY     81  73  76 SE8       30.00R
OKLAHOMA CITY  TSTM      79  69  71 NE12      29.98R

......IOWA............

CITY           SKY/WX    TMP DP  RH WIND       PRES   REMARKS
DES MOINES     MOSUNNY   66  59  78 W8        29.96R
QUAD CITIES    MOSUNNY   69  65  86 W5        29.92R

......ILLINOIS........

CITY           SKY/WX    TMP DP  RH WIND       PRES   REMARKS
QUINCY         CLOUDY    71  69  93 SW5       29.95R
CHICAGO        PTSUNNY   72  63  73 CALM      29.89R





U.S. Dept. of Commerce
NOAA National Weather Service
1325 East West Highway
Silver Spring, MD 20910
E-mail: w-nws.webmaster@noaa.gov
Page last modified: May 16, 2007
NATIONAL WEATHER SERVICE: for Safety, for Work, for Fun - FOR LIFE